Location: Unspecified
(0.0000°N, 0.0000°E)
Time: 18:05:47
(UTC+00:00)

Courier 1B Rocket - Pass Details

Date: 13 April 2021
Orbit: 920 x 1202 km, 28.3° (Epoch: 14 May)

Event Time Altitude Azimuth Distance (km) Brightness Sun altitude
Exits shadow 04:56:45 - 314° (NW) 4,006 7.9 -15.7°
Reaches altitude 10° 04:59:41 10° 321° (NW) 3,072 7.3 -15.0°
Maximum altitude 05:06:44 40° 28° (NNE) 1,593 6.4 -13.3°
Drops below altitude 10° 05:13:22 10° 96° (E) 2,902 8.8 -11.6°
Sets 05:16:12 0° 103° (ESE) 3,813 9.5 -10.9°
